Location: Unspecified
(50.0830°N, 0.0000°E)
Time: 21:09:13
(UTC+00:00)

N. Korean satellite - Pass Details

Date: 21 November 2019
Orbit: 455 x 506 km, 97.2° (Epoch: 12 December)

Event Time Altitude Azimuth Distance (km) Brightness Sun altitude
Rises 17:28:14 0° 186° (S) 2,570 10.5 -12.4°
Reaches altitude 10° 17:30:24 10° 195° (SSW) 1,700 9.7 -12.8°
Maximum altitude 17:33:49 36° 263° (W) 816 8.4 -13.3°
Drops below altitude 10° 17:37:17 10° 331° (NNW) 1,730 9.5 -13.8°
Sets 17:39:31 0° 341° (NNW) 2,624 10.4 -14.2°
